Regional Weather Roundup
Issued by NWS

Home | Current Version | Previous Version | Graphics & Text | Print | Product List | Glossary On
Versions: 1 2 3 4 5 6 7 8 9 10 11 12 13 14 15 16 17 18 19 20 21 22 23 24 25 26 27 28 29 30 31 32 33 34 35 36 37 38 39 40 41 42 43 44 45 46 47 48 49 50
000
ASUS43 KDMX 271204
RWRIA

WEATHER ROUNDUP FOR IOWA
NATIONAL WEATHER SERVICE DES MOINES IA
  ISSUED BY NWS QUAD CITIES IA IL
600 AM CST FRI FEB 27 2015

NOTE: "FAIR" INDICATES FEW OR NO CLOUDS BELOW 12,000 FEET WITH NO
SIGNIFICANT WEATHER AND/OR OBSTRUCTIONS TO VISIBILITY.

* - THESE STATIONS ARE NOT NWS STATIONS...THUS NOT UNDER NWS
QUALITY CONTROL.  THEY ALSO DO NOT REPORT WEATHER SUCH
AS PRECIPITATION OR FOG.

IAZ001>003-012>014-020>022-031>034-043>046-271300-
   NORTHWEST IOWA

CITY           SKY/WX    TMP DP  RH WIND       PRES   REMARKS
CARROLL *      CLEAR     -9 -17  70 W9        30.56S WCI -27
CHEROKEE *     MOSUNNY  -18 -23  78 CALM      30.57R
6HR MIN TEMP: -19; 6HR MAX TEMP: -10;

DENNISON *     PTCLDY   -17 -24  70 CALM      30.56S
LE MARS *      CLEAR    -13 -17  84 CALM      30.58S
ORANGE CITY *  PTCLDY    -8 -13  77 CALM      30.53R
SHELDON *      PTCLDY   -13 -20  70 CALM      30.53R
SIOUX CITY     CLEAR     -7 -12  79 W3        30.59R
6HR MIN TEMP:  -9; 6HR MAX TEMP:  -2;

SPENCER        PTCLDY   -13 -19  75 W3        30.54R
6HR MIN TEMP: -15; 6HR MAX TEMP: -11;

STORM LAKE *   PTCLDY    -9 -17  70 NW9       30.54R WCI -27
$$

IAZ055>058-069>071-079>083-090>094-271300-
   SOUTHWEST IOWA

CITY           SKY/WX    TMP DP  RH WIND       PRES   REMARKS
ATLANTIC *     CLEAR     -9 -15  77 CALM      30.58S
AUDUBON *      PTCLDY   -15 -20  76 CALM      30.56S
CLARINDA *     CLEAR     -4  -8  84 CALM      30.63R
COUNCIL BLFS * CLEAR     -2  -6  84 CALM      30.57R
CRESTON *      FAIR      -8 -13  77 NW6       30.56R WCI -21
HARLAN *       PTCLDY   -11 -15  84 N3        30.61S
LAMONI         CLEAR     -6 -11  79 W5        30.57R WCI -17
6HR MIN TEMP:  -6; 6HR MAX TEMP:  -1;

RED OAK *      CLEAR     -6  -9  84 CALM      30.61R
SHENANDOAH *   CLEAR     -8 -11  84 CALM      30.62S
$$

IAZ047>049-059>061-072>074-084-271300-
   CENTRAL IOWA

CITY           SKY/WX    TMP DP  RH WIND       PRES   REMARKS
AMES           CLEAR    -13 -19  75 W5        30.58R WCI -25
6HR MIN TEMP: -14; 6HR MAX TEMP:  -3;

ANKENY *       CLEAR     -8 -15  71 CALM      30.60R
BOONE *        CLEAR     -9 -17  70 W7        30.54F WCI -24
CHARITON *     PTCLDY    -9 -15  77 W5        30.57S WCI -21
DES MOINES     CLEAR     -6 -12  75 W5        30.59R WCI -17
6HR MIN TEMP:  -6; 6HR MAX TEMP:  -1;

GRINNELL *     MOSUNNY  -12 -17  80 W6        30.57R WCI -26
6HR MIN TEMP: -14; 6HR MAX TEMP:  -7;

KNOXVILLE *    FAIR      -8 -15  71 W6        30.58R WCI -21
MARSHALLTOWN   PTCLDY   -16 -21  78 W6        30.55R WCI -31
6HR MIN TEMP: -17; 6HR MAX TEMP: -12;

NEWTON *       PTCLDY    -9 -17  70 W6        30.58R WCI -23
PELLA *        CLEAR     -9 -11  91 NW5       30.60R WCI -21
6HR MIN TEMP: -10; 6HR MAX TEMP:  -4;

PERRY *          N/A    -10 -14  82 W6        30.58R WCI -24
6HR MIN TEMP: -12; 6HR MAX TEMP:  -6;

$$

IAZ004>006-015-016-023>025-035-036-271300-
   NORTH CENTRAL IOWA

CITY           SKY/WX    TMP DP  RH WIND       PRES   REMARKS
ALGONA *       PTCLDY   -13 -17  84 W8        30.54R WCI -30
CLARION *      FAIR     -18 -26  69 CALM      30.55R
ESTHERVILLE    CLEAR    -14 -18  82 W9        30.52R WCI -33
6HR MIN TEMP: -14; 6HR MAX TEMP: -11;

FORT DODGE *   CLEAR    -11 -18  70 W3        30.56R
6HR MIN TEMP: -15; 6HR MAX TEMP:  -9;

MASON CITY     PTCLDY   -17 -21  82 W7        30.53R WCI -33
6HR MIN TEMP: -18; 6HR MAX TEMP: -10;

FOREST CITY *  FAIR     -17 -26  63 CALM      30.52S
WEBSTER CITY * PTCLDY   -15 -20  76 W7        30.55R WCI -31
IOWA FALLS *   FAIR     -18 -24  73 W3        30.54S
6HR MIN TEMP: -19; 6HR MAX TEMP: -14;

$$

IAZ007>011-017>019-026>030-037>042-050>054-066-271300-
   NORTHEAST IOWA

CITY           SKY/WX    TMP DP  RH WIND       PRES   REMARKS
CEDAR RAPIDS   CLEAR    -18 -21  87 CALM      30.55R
6HR MIN TEMP: -19; 6HR MAX TEMP: -10;

CHARLES CITY * PTCLDY   -18 -27  63 W6        30.53S WCI -33
CLINTON *      PTCLDY   -18 -22  83 W6        30.57R WCI -33
6HR MIN TEMP: -18; 6HR MAX TEMP: -11;

DECORAH *      PTCLDY   -11 -17  77 CALM      30.50S
DUBUQUE        FAIR     -15 -20  78 CALM      30.50R
6HR MIN TEMP: -18; 6HR MAX TEMP:  -2;

MONTICELLO *   PTCLDY   -17 -22  76 NW3       30.55R
OELWEIN *      PTCLDY   -17 -24  70 NW9       30.53S WCI -36
WATERLOO       PTCLDY   -20 -24  82 CALM      30.56R
6HR MIN TEMP: -24; 6HR MAX TEMP:  -9;

$$

IAZ064-065-067-068-078-271300-
   EAST CENTRAL IOWA

CITY           SKY/WX    TMP DP  RH WIND       PRES   REMARKS
DAVENPORT      PTCLDY   -18 -23  77 W7        30.57R WCI -35
6HR MIN TEMP: -18; 6HR MAX TEMP: -11;

IOWA CITY      CLEAR     -9 -14  78 NW6       30.60R WCI -22
6HR MIN TEMP: -10; 6HR MAX TEMP:  -4;

MT. PLEASANT * PTCLDY   -10 -15  81 W6        30.59S WCI -24
6HR MIN TEMP: -12; 6HR MAX TEMP:  -4;

MUSCATINE *    CLEAR     -9 -15  77 S5        30.62R WCI -21
QUAD CITIES    CLEAR    -11 -16  78 W7        30.58R WCI -26
6HR MIN TEMP: -12; 6HR MAX TEMP:  -1;

$$

IAZ062-063-075>077-085>089-095>099-271300-
   SOUTHEAST IOWA

CITY           SKY/WX    TMP DP  RH WIND       PRES   REMARKS
BURLINGTON     PTCLDY    -9 -13  83 NW7       30.58R WCI -24
6HR MIN TEMP: -10; 6HR MAX TEMP:  -3;

FAIRFIELD *    PTCLDY   -11 -18  70 W7        30.59R WCI -26
FORT MADISON * PTCLDY    -9 -15  77 W6        30.59R WCI -23
KEOKUK *       PTCLDY    -8 -11  84 NW6       30.59S WCI -21
OSKALOOSA *    FAIR     -11 -16  80 W7        30.59S WCI -26
6HR MIN TEMP: -12; 6HR MAX TEMP:  -7;

CENTERVILLE *  FAIR      -8 -11  84 W3        30.59R
OTTUMWA        CLEAR     -9 -14  78 NW8       30.58R WCI -25
6HR MIN TEMP:  -9; 6HR MAX TEMP:  -3;

WASHINGTON *   PTCLDY   -13 -15  92 W8        30.59R WCI -30
$$

ABBREVIATIONS USED IN REMARKS
   TC - TEMPERATURES IN CELSIUS
  WCI - WIND CHILL INDEX
   HX - HEAT INDEX
  VSB - VISIBILITY
$$



USA.gov is the U.S. government's official web portal to all federal, state and local government web resources and services.